Simultaneous Nadir Overpasses (SNOs) Predictions

Prediction of SNOs between GOES-16 and METOP-C Satellite Orbit:

Table of predicted SNOs for the next 14.0 days since TLE Epoch: 4/13/2024
Index Date Time (GOES-16) GOES-16 Lat,Lon METOP-C Lat,Lon Distance(km) Time Diff (sec)
1 04/14/2024 14:44:24 0.02, -75.22 0.88, -78.95 426.46 80
2 04/15/2024 14:26:27 0.02, -75.22 -0.26, -73.97 142.76 80
3 04/17/2024 02:45:28 -0.01, -75.22 -0.79, -78.56 380.65 80
4 04/18/2024 02:22:11 -0.01, -75.23 0.36, -73.57 189.12 80
5 04/19/2024 14:41:05 0.01, -75.26 0.67, -78.14 328.63 80
6 04/20/2024 14:23:08 0.01, -75.27 -0.49, -73.16 241.79 80
7 04/22/2024 02:42:09 -0.01, -75.29 -0.55, -77.75 279.92 80
8 04/23/2024 02:18:51 -0.01, -75.31 0.55, -72.75 290.74 80
9 04/24/2024 14:37:45 0.00, -75.34 0.46, -77.32 226.03 80
10 04/25/2024 14:19:47 0.00, -75.36 -0.70, -72.34 344.82 80
11 04/27/2024 02:38:49 0.00, -75.38 -0.32, -76.93 176.50 80
